Location: Bear Valley Meadows
(40.9851°N, 123.0761°W)
Time: 15:14:12
(UTC+00:00)

Cosmos 1727 Rocket - Pass Details

Date: 29 May 2024
Orbit: 961 x 996 km, 82.9° (Epoch: 18 June)

Event Time Altitude Azimuth Distance (km) Brightness Sun altitude
Rises 12:01:48 0° 355° (N) 3,679 7.5 -7.4°
Reaches altitude 10° 12:04:21 10° 358° (N) 2,733 6.9 -7.0°
Maximum altitude 12:10:35 68° 81° (E) 1,056 4.5 -6.1°
Drops below altitude 10° 12:16:50 10° 164° (SSE) 2,739 6.2 -5.1°
Sets 12:19:22 0° 167° (SSE) 3,688 6.8 -4.7°
